Location: Härggis
(46.9540°N, 8.4897°E)
Time: 21:25:57
(UTC+00:00)

CZ-2D R/B - Pass Details

Date: 27 May 2022
Orbit: 791 x 845 km, 98.7° (Epoch: 02 July)

Event Time Altitude Azimuth Distance (km) Brightness Sun altitude
Rises 00:30:41 0° 20° (NNE) 3,377 7.0 -20.1°
Reaches altitude 10° 00:33:13 10° 28° (NNE) 2,431 5.8 -20.0°
Maximum altitude 00:38:16 40° 98° (E) 1,178 3.0 -19.7°
Enters shadow 00:40:55 24° 152° (SSE) 1,616 3.3 -19.6°
